Regional Weather Roundup
Issued by NWS State College, PA

Home | Current Version | Previous Version | Text Only | Print | Product List | Glossary On
Versions: 1 2 3 4 5 6 7 8 9 10 11 12 13 14 15 16 17 18 19 20 21 22 23 24 25 26 27 28 29 30 31 32 33 34 35 36 37 38 39 40 41 42 43 44 45 46 47 48 49 50
000
ASUS41 KCTP 122210
RWRCTP

REGIONAL WEATHER ROUNDUP
NATIONAL WEATHER SERVICE STATE COLLEGE PA
500 PM EST TUE DEC 12 2017

Note: "fair" indicates few or no clouds below 12,000 feet with no
significant weather and/or obstructions to visibility.

* = STATION THAT DOES NOT REPORT PRECIPITATION /E.G. RAIN...SNOW...ETC/
    THUNDER OR FOG.

PAZ002>004-007>009-013>016-020>023-029>032-122300-
WESTERN PENNSYLVANIA

CITY           SKY/WX    TMP DP  RH WIND       PRES   REMARKS
ERIE           LGT SNOW  18   8  65 W17G29    29.75S WCI   3
MEADVILLE      FLURRIES  13   6  74 W14G22    29.72R WCI  -2
FRANKLIN*      PTCLDY    12   6  77 W15G22    29.70S WCI  -4
NEW CASTLE     NOT AVBL
BEAVER COUNTY  LGT SNOW  16  10  79 NW12G18   29.76R WCI   3
BUTLER*        CLOUDY    17   5  59 W12G23    29.74R WCI   4
PITTSBURGH INT LGT SNOW  20  15  81 W16G24    29.75R WCI   6
PITTSBURGH     LGT SNOW  17  12  80 NW10G29   29.75R WCI   5
INDIANA*       CLOUDY    19   9  63 NW18G28   29.73R WCI   4
LATROBE        LGT SNOW  19  14  79 MISG      29.74R
WASHINGTON CO* FLURRIES  20   7  57 NW16G24   29.80R WCI   6
$$

PAZ004>006-010>012-017>019-024>028-033>037-041-042-045-046-049>053-122300-
CENTRAL PENNSYLVANIA

CITY           SKY/WX    TMP DP  RH WIND       PRES   REMARKS
BRADFORD         N/A     13   6  74 W13       29.57R WCI  -2
DUBOIS         LGT SNOW  14   5  67 W14G26    29.62R WCI  -1
CLEARFIELD     LGT SNOW  18  10  71 NW10G23   29.64R WCI   6
JOHNSTOWN      LGT SNOW  16  10  77 W23G33    29.59R WCI  -2
ALTOONA        LGT SNOW  23  15  71 NW13G28   29.63R WCI  11
STATE COLLEGE  CLOUDY    23   7  50 W18G30    29.62R WCI   9
WILLIAMSPORT   CLOUDY    32  15  49 NW20G28   29.57R
SELINSGROVE    MOCLDY    32  17  54 W16G25    29.59R
FT INDIANTOWN  MOCLDY    35  17  47 W16G24    29.56R
CAPITAL CITY   CLOUDY    36  14  40 W22G28    29.58R
HARRISBURG     CLOUDY    36  17  46 NW20G28   29.57R
YORK           CLOUDY    35  20  54 NW21G26   29.57R
$$

PAZ038>040-043-044-047-048-054-055-060>062-067>071-122300-
EASTERN PENNSYLVANIA

CITY           SKY/WX    TMP DP  RH WIND       PRES   REMARKS
SCRANTON       CLOUDY    32  20  61 W8        29.50R
MOUNT POCONO   LGT SNOW  26  23  88 NW22G31   29.42R FOG     WCI  12
ALLENTOWN      CLOUDY    39  26  59 W20G29    29.48R
QUAKERTOWN*    CLOUDY    39  27  60 W12G17    29.48R
READING        PTCLDY    36  25  64 NW14      29.52R
LANCASTER      CLOUDY    36  23  59 NW16      29.55R
COATESVILLE    CLOUDY    36  28  75 NW18      29.53R
POTTSTOWN      CLOUDY    38  25  59 NW14G23   29.51R
BLUE BELL      CLOUDY    39  28  65 NW6G17    29.50R
DOYLESTOWN     CLOUDY    40  26  57 NW13      29.47R
WILLOW GROVE   NOT AVBL
NORTH PHILA    CLOUDY    44  29  55 NW14      29.51R
PHILADELPHIA   CLOUDY    44  29  55 W8        29.51R
$$




USA.gov is the U.S. government's official web portal to all federal, state and local government web resources and services.